Showing default

FLOCK 4BE 33, 60502

Orbit data source: Space-Track

FLOCK 4BE 33, 60502 is a payload satellite owned by Planet (US) in SSO that was launched on Fri, 16 Aug 2024 UTC via an FALCON 9 launch vehicle from the Air Force Western Test Range (AFWTR). Payload-class satellites include a variety of spacecraft equipped with specific instruments for various scientific and technological missions. These include communications satellites like Starlink; space stations such as the ISS; scientific satellites like the Hubble; Earth observation satellites from companies like Planet Labs, Umbra, and HawkEye 360; GPS; miniature CubeSats for education and research; and military/defense satellites.

Loading next visibility...
Identifier
60502, 2024-149AL
Orbit
SSO
Last TLE update
10 hours ago
Origin
Manufacturer
Planet
Mission
Operational Commercial Imaging
Bus & Motor
CUBESAT 3U, Unknown motor
Mass
5.7 kg wet, 5.7 kg dry
Launch date (UTC)
2024-08-16 (11 months ago)
Launch vehicle
FALCON 9
Launch site
Air Force Western Test Range (AFWTR)
Object type
Payload
Rocket body
Debris
Shape & HBR
Box + 2 Pan, 0.3 m
Radar Cross Section
0.035 m², Medium (>0.1 m² and < 1m²)

Expand to show TLE details & history

TLE from 10 hours ago
0 FLOCK 4BE 33
1 60502U 24149AL  25188.93291192  .00006552  00000-0  24432-3 0  9999
2 60502  97.4056 266.8014 0006324  76.8363 283.3582 15.27749846 49491
Epoch: 2025-07-07T22:23Z
TLE epoch observation values (Epoch: 2025-07-07T22:23:23.589Z)
Latitude
-0.00001°
Longitude
4.81797°
Altitude
484.641 km
Speed
7.624 km/s
True Right ascension
17h 47m 12s
True Declination
0° 00' 00"
Sunlit
Object was in full shadow at epoch
Visualization orbit readout
Latitude
19.72462°
Longitude
-172.10654°
Altitude
484.773 km
Speed
7.625 km/s
Apparent Right ascension
07h 06m 56s
Apparent Declination
-9° 22' 27"
Sunlit
Object is in daylight
Visualization observer readout
Local Sidereal Time
20:36:54
Azimuth
39.369° NE
Elevation
-53.484°
Doppler factor
1
Orbital elements
Apogee altitude
483.833 km
Perigee altitude
475.159 km
Semi-major axis
6,857.633 km
Eccentricity
0.00063
Inclination
97.4056°
RAAN
266.8014°
Arg. of periapsis
76.8363°
True anomaly
Unknown
Mean anomaly
283.3582°
Eccentric anomaly
Unknown
Mean motion
3.82192 °/min
Orbital period
94.19 mins
BSTAR
0.00024432
Loading maneuver chart data...
Loading SW <> Apogee altitude chart data...
Loading historical data...
Loading historical data...
Loading historical data...
Loading historical data...
Loading historical data...
Loading historical data...
Loading historical data...

FLOCK 4BE 33 Visibility forecast

Observer location: undefined°, undefined°

Span
Click to sort rows by Start time (UTC) header in descending order
Start Az.
Max El. time (UTC)
Max El. Az.
Max El.
End time (UTC)
End Az.
6 mins2025-07-08 17:49:10.187Z25.733° NE2025-07-08 17:52:10.187Z120.072° SE37.541°2025-07-08 17:55:10.187Z176.976° S
4 mins2025-07-09 05:58:10.187Z223.56° SW2025-07-09 06:00:10.187Z271.351° WNW21.654°2025-07-09 06:02:10.187Z312.29° NW
|